Regional Weather Roundup
Issued by NWS Boston, MA

Home | Current Version | Previous Version | Text Only | Print | Product List | Glossary On
Versions: 1 2 3 4 5 6 7 8 9 10 11 12 13 14 15 16 17 18 19 20 21 22 23 24 25 26 27 28 29 30 31 32 33 34 35 36 37 38 39 40 41 42 43 44 45 46 47 48 49 50
000
ASUS41 KBOX 020310
RWRBOX

REGIONAL WEATHER ROUNDUP
NATIONAL WEATHER SERVICE TAUNTON MA
1000 PM EST SUN MAR 01 2015

NOTE:  "FAIR" INDICATES FEW OR NO CLOUDS BELOW 12,000 FEET WITH NO
SIGNIFICANT WEATHER AND/OR OBSTRUCTIONS TO VISIBILITY.  THE FOLLOWING
OBSERVATION LOCATIONS DO NOT REPORT PRESENT WEATHER...PROVINCETOWN...
SMITHFIELD...BLOCK ISLAND...KEENE...AND OXFORD.

MAZALL-020400-
EASTERN MASSACHUSETTS

CITY           SKY/WX    TMP DP  RH WIND       PRES   REMARKS
BOSTON         LGT SNOW  28  26  92 SW8       30.20F FOG     WCI  20
BEVERLY        LGT SNOW  27  24  89 SW6       30.19F FOG     WCI  20
LAWRENCE       LGT SNOW  26  24  92 SW5       30.19F FOG     WCI  20
BEDFORD        LGT SNOW  25  24  96 SW6       30.18F VSB 1   WCI  18
BLUE HILL        N/A     26  25  96 S14       30.15F WCI  14
NORWOOD        LGT SNOW  29  26  89 S6        30.19F FOG     WCI  23
MARSHFIELD     LGT SNOW  30  30 100 S6        30.21F WCI  24
PLYMOUTH       LGT SNOW  28  27  96 S5        30.20F VSB 1   WCI  23
TAUNTON        LGT SNOW  29  27  92 CALM      30.20F VSB 1
NEW BEDFORD    LGT SNOW  31  30  96 S5        30.20F FOG     WCI  26
$$

MAZALL-020400-
CAPE COD AND THE ISLANDS

CITY           SKY/WX    TMP DP  RH WIND       PRES   REMARKS
FALMOUTH       LGT SNOW  30  28  93 S5        30.21F WCI  25
HYANNIS        LGT SNOW  30  29  96 S6        30.20F FOG     WCI  24
CHATHAM        LGT SNOW  32  31  96 S5        30.23F FOG     WCI  27
PROVINCETOWN   CLOUDY    30  27  86 S8        30.21F WCI  23
NANTUCKET      RAIN      34  33  96 SE3       30.22F FOG
MARTHAS VNYRD  FRZ RAIN  32  29  88 S8        30.21F FOG     WCI  25
$$

MAZALL-020400-
CENTRAL AND WESTERN MASSACHUSETTS

CITY           SKY/WX    TMP DP  RH WIND       PRES   REMARKS
WORCESTER      LGT SNOW  24  21  88 SW12      30.11F VSB 1   WCI  13
FITCHBURG      LGT SNOW  27  22  81 S5        30.16F WCI  22
ORANGE         LGT SNOW  23  21  92 S5        30.16F FOG     WCI  17
SPRINGFIELD    LGT SNOW  25  22  91 S6        30.16F FOG     WCI  18
WESTFIELD      LGT SNOW  25  21  85 S8        30.17F FOG     WCI  16
NORTH ADAMS    LGT SNOW  22  19  89 SE5       30.14F FOG     WCI  16
PITTSFIELD     LGT SNOW  21  18  88 CALM      30.09F FOG
$$

RIZALL-020400-
RHODE ISLAND

CITY           SKY/WX    TMP DP  RH WIND       PRES   REMARKS
PROVIDENCE     LGT SNOW  29  27  92 S3        30.21F FOG
NEWPORT        LGT SNOW  30  29  96 S3        30.20F FOG
BLOCK ISLAND   CLOUDY    30  27  86 NW3       30.20F
SMITHFIELD     CLOUDY    27  23  86 CALM      30.17F
WESTERLY       LGT SNOW  29  28  96 CALM      30.22F FOG
$$

CTZALL-020400-
CONNECTICUT

CITY           SKY/WX    TMP DP  RH WIND       PRES   REMARKS
BRADLEY INTL   LGT SNOW  27  23  85 S7        30.18F VSB 1   WCI  19
HARTFORD       LGT SNOW  26  24  92 S6        30.21F VSB 1   WCI  19
BRIDGEPORT     LGT SNOW  27  25  92 SW5       30.22F FOG     WCI  22
DANBURY        LGT SNOW  24  19  81 CALM      30.20F VSB 3/4
GROTON         LGT SNOW  28  27  96 CALM      30.21F FOG
NEW HAVEN      LGT SNOW  27  25  92 CALM      30.21F VSB 1
CHESTER        LGT SNOW  28  27  93 CALM      30.18F
MERIDEN        LGT SNOW  26  23  88 CALM      30.21F VSB 1
WILLIMANTIC    LGT SNOW  27  24  89 CALM      30.21F FOG
OXFORD         CLOUDY    25  18  74 CALM      30.18F
$$

MEZ002-015-021-024-NHZ003-005-008-011-012-014-VTZ005-008-020400-
NORTHERN NEW ENGLAND

CITY           SKY/WX    TMP DP  RH WIND       PRES   REMARKS
PORTLAND ME    LGT SNOW  27  23  85 SW7       30.18F FOG     WCI  19
BANGOR ME      LGT SNOW  25  22  88 S8        30.16F FOG     WCI  16
CONCORD NH     LGT SNOW  24  21  88 S5        30.15F FOG     WCI  18
MANCHESTER NH  LGT SNOW  25  24  96 S6        30.16F FOG     WCI  18
NASHUA NH      LGT SNOW  25  25 100 CALM      30.18F FOG
PORTSMOUTH NH  LGT SNOW  25  23  91 S3        30.16F FOG
JAFFREY NH     LGT SNOW  22  19  89 SW6       30.11F FOG     WCI  14
KEENE NH       CLOUDY    23  19  86 CALM      30.15F
BURLINGTON VT  LGT SNOW  24  18  77 S12       30.11F WCI  13
MT. WASHINGTON SNOW      10  10 100 W45G58      N/A  VSB 1/16WCI -15
$$

NYZ052-076-020400-
EASTERN NEW YORK

CITY           SKY/WX    TMP DP  RH WIND       PRES   REMARKS
ALBANY         LGT SNOW  24  19  81 S10       30.17F WCI  14
NEW YORK CITY  FRZ RAIN  28  25  86 N3        30.22F FOG
$$

ANZALL-020400-
MARINE OBSERVATIONS

STATION/POSITION TIME  TEMP    WIND        PRES    VSBY  WAVE
                       AIR SEA DIR/SP/G                  HT/PER
                 (UTC) (F)     (DEG/KT/KT) (MB)    (MI)  (FT/S)
BOSTON BUOY      0250   29 36  200/ 12/ 14 1022.8F         2/ 3
BUZZARDS BAY     0200          170/  6/  6 1024.9F
NANTUCKET SOUND  0250   32 30  150/  8/ 10 1023.7F         1
MASS BAY-STELLWA 0204   29 35  190/ 14/ 17   N/A     3/4   3/ 4
ISLE OF SHOALS   0300   28     220/ 16/ 18 1021.1F
S OF BLOCK IS    0208      37                N/A           2/ 9
$$

......................KEY.........................
  SKY/WX - SKY CONDITION/PRESENT WEATHER
  TMP    - TEMPERATURE IN FAHRENHEIT
  DWPT   - DEWPOINT IN FAHRENHEIT
  RH     - RELATIVE HUMIDITY IN PERCENT
  WIND   - DIRECTION AND SPEED IN MPH
  PRES   - MEAN SEA LEVEL PRESSURE IN INCHES OF HG
  WCI    - WIND CHILL INDEX
  VSB    - VISIBILITY IN MILES
  HX     - HEAT INDEX
  TC     - TEMPERATURE IN CELSIUS
  VRB    - VARIABLE WIND DIRECTION
  N/A    - NOT AVAILABLE


USA.gov is the U.S. government's official web portal to all federal, state and local government web resources and services.